Home   Weather   North Myrtle Beach   Past weeks
Flag for USA

Past Weather in North Myrtle Beach, South Carolina, USA — Yesterday and Last 2 Weeks

Now
76 °F

Clear.


Feels Like: 76 °F
Forecast: 86 / 74 °F
Wind: 6 mph from Northeast

Location: Grand Strand Airport

Current Time: Sep 16, 2019 at 12:25:22 am

Latest Report: Sep 15, 2019 at 11:53 pm


Visibility: 10 mi

Pressure: 30.02 "Hg

Humidity: 91%

Dew Point: 73 °F

Location of North Myrtle BeachLocation

Past Weather in North Myrtle Beach — Graph

°F

North Myrtle Beach Temperature Yesterday

Maximum temperature yesterday: 86 °F (at 1:35 pm)
Minimum temperature yesterday: 73 °F (at 5:53 am)
Average temperature yesterday: 79 °F

High & Low Weather Summary for the Past Weeks

 TemperatureHumidityPressure
High88 °F (Sep 6, 3:53 pm)97% (Sep 2, 12:53 am)30.27 "Hg (Sep 2, 12:53 am)
Low72 °F (Sep 12, 4:53 am)50% (Sep 7, 11:53 am)29.40 "Hg (Sep 5, 1:58 pm)
Average79 °F83%30.03 "Hg
* Reported Aug 31 10:53 pm — Sep 15 10:53 pm, North Myrtle Beach. Weather by CustomWeather, © 2019

Note: Actual official high and low records may vary slightly from our data, if they occured in-between our weather recording intervals... More about our weather records

Advertising

North Myrtle Beach Weather History for the Previous 24 Hours

Scroll right to see more
 ConditionsComfort  
Time TempWeatherWind HumidityBarometerVisibility
10:53 pm
Sun, Sep 15
77 °FClear.5 mph88%30.04 "Hg10 mi
9:53 pm77 °FClear.5 mph88%30.04 "Hg10 mi
8:53 pm79 °FPassing clouds.5 mph82%30.04 "Hg10 mi
7:53 pm82 °FClear.7 mph72%30.04 "Hg10 mi
6:53 pm83 °FSunny.8 mph70%30.04 "Hg10 mi
5:53 pm84 °FSunny.13 mph72%30.03 "Hg10 mi
4:53 pm85 °FBroken clouds.10 mph70%30.04 "Hg10 mi
3:53 pm84 °FLight rain. Broken clouds.12 mph74%30.05 "Hg10 mi
2:53 pm85 °FBroken clouds.12 mph72%30.06 "Hg10 mi
1:53 pm84 °FCloudy.9 mph74%30.07 "Hg10 mi
1:35 pm86 °FMostly cloudy.6 mph65%30.07 "Hg10 mi
12:53 pm85 °FPartly sunny.6 mph68%30.09 "Hg10 mi
11:53 am85 °FScattered clouds.7 mph68%30.10 "Hg10 mi
10:53 am83 °FPassing clouds.7 mph74%30.11 "Hg10 mi
9:53 am80 °FScattered clouds.7 mph81%30.12 "Hg10 mi
9:32 am79 °FScattered clouds.9 mph84%30.12 "Hg10 mi
8:53 am75 °FLow clouds.7 mph96%30.13 "Hg10 mi
7:53 am74 °FFog.5 mph97%30.12 "Hg1 mi
7:30 am73 °FFog.7 mph97%30.12 "Hg1 mi
7:06 am73 °FFog.6 mph97%30.11 "Hg5 mi
6:53 am73 °FFog.6 mph97%30.11 "Hg3 mi
6:33 am73 °FPassing clouds.6 mph97%30.11 "Hg10 mi
5:53 am73 °FPassing clouds.5 mph97%30.10 "Hg10 mi
4:53 am74 °FPassing clouds.6 mph94%30.09 "Hg10 mi
3:53 am74 °FClear.5 mph94%30.09 "Hg10 mi
2:53 am75 °FClear.6 mph94%30.10 "Hg10 mi
1:53 am75 °FClear.5 mph94%30.12 "Hg10 mi
12:53 am75 °FClear.3 mph94%30.13 "Hg10 mi
Weather by CustomWeather, © 2019

See weather overview